Location: Newark
(51.8042°N, 2.6377°W)
Time: 03:12:03
(UTC+00:00)

Envisat - Visible Passes

Search period start: 16 December 2019 00:00
Search period end: 26 December 2019 00:00
Orbit: 764 x 766 km, 98.1° (Epoch: 15 December)

Date Brightness Start Highest point End Pass type
(mag) Time Alt. Az. Time Alt. Az. Time Alt. Az.
16 Dec 5.6 05:57:57 10° NE 06:01:52 22° E 06:05:45 10° SE visible
16 Dec 3.2 17:17:32 10° SE 17:22:24 48° ENE 17:27:18 10° N visible
16 Dec 4.9 18:57:16 10° SSW 19:01:39 29° W 19:06:05 10° NNW visible
17 Dec 6.3 05:23:15 10° ENE 05:24:33 11° E 05:25:50 10° E visible
17 Dec 3.5 06:59:28 10° NNE 07:04:34 67° ESE 07:09:38 10° S visible
17 Dec 3.9 16:41:42 10° ESE 16:45:55 27° ENE 16:50:07 10° N visible
17 Dec 3.7 18:19:39 10° S 18:24:38 56° W 18:29:40 10° NNW visible
18 Dec 4.8 06:22:57 10° NNE 06:27:36 34° E 06:32:13 10° SSE visible
18 Dec 2.9 17:42:45 10° SSE 17:47:49 76° ENE 17:52:55 10° NNW visible
18 Dec 5.6 19:23:57 10° SW 19:27:26 18° W 19:30:57 10° NW visible
19 Dec 5.8 05:46:59 10° NE 05:50:27 18° E 05:53:52 10° SE visible
19 Dec 3.0 07:24:58 10° NNE 07:30:05 78° WNW 07:35:09 10° SSW visible
19 Dec 3.4 17:06:28 10° SE 17:11:11 40° ENE 17:15:55 10° N visible
19 Dec 4.6 18:45:39 10° SSW 18:50:17 35° W 18:54:57 10° NNW visible
20 Dec 3.8 06:48:14 10° NNE 06:53:15 55° E 06:58:14 10° S visible
20 Dec 3.3 18:08:15 10° S 18:13:19 69° WSW 18:18:25 10° NNW visible
20 Dec 6.2 19:51:51 10° W 19:53:20 11° W 19:54:49 10° WNW visible
21 Dec 5.1 06:11:50 10° NNE 06:16:14 28° E 06:20:35 10° SSE visible
21 Dec 3.0 17:31:33 10° SSE 17:36:33 63° ENE 17:41:36 10° N visible
21 Dec 5.4 19:12:05 10° SW 19:16:01 22° W 19:19:59 10° NW visible
22 Dec 6.0 05:36:11 10° NE 05:39:00 15° E 05:41:49 10° ESE visible
22 Dec 3.1 07:13:40 10° NNE 07:18:48 87° ESE 07:23:54 10° SSW visible
22 Dec 3.6 16:55:27 10° SE 16:59:59 34° ENE 17:04:32 10° N visible
22 Dec 4.2 18:34:06 10° S 18:38:55 43° W 18:43:47 10° NNW visible
23 Dec 4.2 06:37:01 10° NNE 06:41:55 45° E 06:46:47 10° S visible
23 Dec 3.0 17:56:56 10° SSE 18:02:01 83° WSW 18:07:09 10° NNW visible
23 Dec 6.0 19:39:16 10° WSW 19:41:52 14° W 19:44:29 10° NW visible
24 Dec 5.4 06:00:46 10° NE 06:04:50 23° E 06:08:53 10° SE visible
24 Dec 3.1 17:20:24 10° SE 17:25:19 52° ENE 17:30:15 10° N visible
24 Dec 5.1 19:00:20 10° SSW 19:04:37 27° W 19:08:56 10° NW visible
25 Dec 6.2 05:25:40 10° ENE 05:27:33 12° E 05:29:25 10° ESE visible
25 Dec 3.3 07:02:24 10° NNE 07:07:31 73° ESE 07:12:34 10° S visible
25 Dec 3.8 16:44:29 10° ESE 16:48:47 29° ENE 16:53:05 10° N visible
25 Dec 3.8 18:22:38 10° S 18:27:35 52° W 18:32:34 10° NNW visible
